WetterOnline ( http://www.wetteronline.de )

Wetter aktuell Lübeck

Aktuelles Wetter: Dörnick (28m)

6-stündlich | Neueste Meldungen
Ortszeit Temperatur Wetter
Sa, 21.07. 2:00 11.2° C wolkenlos
Fr, 20.07. 20:00 23.4° C leicht bewölkt
Fr, 20.07. 14:00 23.7° C wolkenlos
Fr, 20.07. 8:00 15.5° C wolkenlos
Fr, 20.07. 2:00 11.4° C leicht bewölkt
Do, 19.07. 20:00 22.0° C wolkenlos
Do, 19.07. 14:00 23.2° C leicht bewölkt
Do, 19.07. 8:00 17.0° C leicht bewölkt
Ortszeit Temperatur Wetter
Sa, 21.07. 3:30 11.3° C bedeckt
Sa, 21.07. 3:20 11.3° C bedeckt
Sa, 21.07. 3:10 11.1° C bedeckt
Sa, 21.07. 3:00 10.9° C bedeckt
Sa, 21.07. 2:50 10.9° C bedeckt
Sa, 21.07. 2:40 10.7° C bedeckt
Sa, 21.07. 2:30 10.8° C wolkig
Sa, 21.07. 2:00 11.2° C wolkenlos
Sa, 21.07. 1:30 11.3° C fast wolkenlos
Sa, 21.07. 1:00 11.7° C leicht bewölkt
Sa, 21.07. 0:30 12.0° C wolkenlos
Ortszeit Relative Feuchte Sichtweite
Sa, 21.07. 2:00 90% 22 km
Fr, 20.07. 20:00 40% 50 km
Fr, 20.07. 14:00 31% 30 km
Fr, 20.07. 8:00 77% 19 km
Fr, 20.07. 2:00 84% 60 km
Do, 19.07. 20:00 42% 50 km
Do, 19.07. 14:00 42% 20 km
Do, 19.07. 8:00 81% 24 km
Ortszeit Relative Feuchte Sichtweite
Sa, 21.07. 3:30 94% 14 km
Sa, 21.07. 3:20 94% -
Sa, 21.07. 3:10 94% -
Sa, 21.07. 3:00 93% 17 km
Sa, 21.07. 2:50 93% -
Sa, 21.07. 2:40 91% -
Sa, 21.07. 2:30 90% 23 km
Sa, 21.07. 2:00 90% 22 km
Sa, 21.07. 1:30 88% 29 km
Sa, 21.07. 1:00 86% 28 km
Sa, 21.07. 0:30 85% 29 km
Ortszeit Niederschlagsmenge Niederschlagsart
Sa, 21.07. 2:00 0.0 l/m2 in 6 Std. -
Fr, 20.07. 20:00 0.0 l/m2 in 12 Std. -
Fr, 20.07. 14:00 0.0 l/m2 in 6 Std. -
Fr, 20.07. 8:00 0.0 l/m2 in 12 Std. -
Fr, 20.07. 2:00 0.0 l/m2 in 6 Std. -
Do, 19.07. 20:00 0.0 l/m2 in 12 Std. -
Do, 19.07. 14:00 0.0 l/m2 in 6 Std. -
Do, 19.07. 8:00 0.0 l/m2 in 12 Std. -
Ortszeit Niederschlagsmenge Niederschlagsart
Sa, 21.07. 3:30 0.0 l/m2 in 1 Std. -
Sa, 21.07. 3:20 keine Meldung -
Sa, 21.07. 3:10 keine Meldung -
Sa, 21.07. 3:00 0.0 l/m2 in 1 Std. -
Sa, 21.07. 2:50 keine Meldung -
Sa, 21.07. 2:40 keine Meldung -
Sa, 21.07. 2:30 0.0 l/m2 in 1 Std. -
Sa, 21.07. 2:00 0.0 l/m2 in 1 Std. -
Sa, 21.07. 1:30 0.0 l/m2 in 1 Std. -
Sa, 21.07. 1:00 0.0 l/m2 in 1 Std. -
Sa, 21.07. 0:30 0.0 l/m2 in 1 Std. -
Ortszeit Stärke Spitze Richtung
km/h Bft. km/h Grad Sektor
Sa, 21.07. 2:00 4 1 11 350° N
Fr, 20.07. 20:00 7 2 22 40° NO
Fr, 20.07. 14:00 7 2 22 10° N
Fr, 20.07. 8:00 9 2 13 340° N
Fr, 20.07. 2:00 6 1 24 320° NW
Do, 19.07. 20:00 13 3 35 270° W
Do, 19.07. 14:00 22 4 32 280° W
Do, 19.07. 8:00 11 2 18 330° NW
Ortszeit Stärke Spitze Richtung
km/h Bft. km/h Grad Sektor
Sa, 21.07. 3:30 4 1 7 270° W
Sa, 21.07. 3:20 4 1 - 270° W
Sa, 21.07. 3:10 4 1 - 270° W
Sa, 21.07. 3:00 6 1 7 280° W
Sa, 21.07. 2:50 6 1 - 280° W
Sa, 21.07. 2:40 6 1 - 300° NW
Sa, 21.07. 2:30 4 1 7 320° NW
Sa, 21.07. 2:00 4 1 4 350° N
Sa, 21.07. 1:30 0 0 4 - -
Sa, 21.07. 1:00 0 0 4 - -
Sa, 21.07. 0:30 4 1 4 150° SO
Ortszeit Untergrenze Bedeckung Gattung
total tief tief mittel hoch
Sa, 21.07. 2:00 2700 m 0/8 0/8 - - -
Fr, 20.07. 20:00 3300 m 8/8 1/8 - - -
Fr, 20.07. 14:00 - 0/8 0/8 - - -
Fr, 20.07. 8:00 - 0/8 0/8 - - -
Fr, 20.07. 2:00 8700 m 6/8 0/8 - - -
Do, 19.07. 20:00 - 0/8 0/8 - - -
Do, 19.07. 14:00 1800 m 4/8 4/8 - - -
Do, 19.07. 8:00 2100 m 8/8 1/8 - - -
Ortszeit Bedeckungsgrad in Achtel und Wolkenuntergrenze
Sa, 21.07. 3:30 2(5700m) 8(6600m) 8(10500m)
Sa, 21.07. 3:20 2(5700m) 8(6600m) 8(10500m)
Sa, 21.07. 3:10 4(6000m) 8(6600m) 8(10500m)
Sa, 21.07. 3:00 7(6300m) 8(6900m) 8(10500m)
Sa, 21.07. 2:50 7(6300m) 8(6900m) 8(10500m)
Sa, 21.07. 2:40 6(6300m) 8(6900m) 8(10500m)
Sa, 21.07. 2:30 5(6900m)
Sa, 21.07. 2:00 1(2700m)
Sa, 21.07. 1:30 1(10500m)
Sa, 21.07. 1:00 4(10500m)
Sa, 21.07. 0:30 keine Wolken
Ortszeit Luftdruck NN (hPa) Tendenz (hPa in 3 Std.)
Sa, 21.07. 2:00 1014 - 0,2
Fr, 20.07. 20:00 1013 - 0,7
Fr, 20.07. 14:00 1015 - 1,0
Fr, 20.07. 8:00 1017 - 0,2
Fr, 20.07. 2:00 1017 - 0,3
Do, 19.07. 20:00 1017 - 0,6
Do, 19.07. 14:00 1018 - 0,6
Do, 19.07. 8:00 1019 + 0,5
Ortszeit Luftdruck NN (hPa) Tendenz (hPa in 3 Std.)
Sa, 21.07. 3:30 1014 - 0,4
Sa, 21.07. 3:20 1014 keine Meldung
Sa, 21.07. 3:10 1014 keine Meldung
Sa, 21.07. 3:00 1014 - 0,1
Sa, 21.07. 2:50 1014 keine Meldung
Sa, 21.07. 2:40 1014 keine Meldung
Sa, 21.07. 2:30 1014 - 0,2
Sa, 21.07. 2:00 1014 - 0,2
Sa, 21.07. 1:30 1014 0,0
Sa, 21.07. 1:00 1014 + 0,3
Sa, 21.07. 0:30 1014 + 0,4
Ortszeit Schneehöhe (cm)
Sa, 21.07. 2:00 -
Fr, 20.07. 20:00 -
Fr, 20.07. 14:00 -
Fr, 20.07. 8:00 -
Fr, 20.07. 2:00 -
Do, 19.07. 20:00 -
Do, 19.07. 14:00 -
Do, 19.07. 8:00 -
Ortszeit Schneehöhe (cm)
Sa, 21.07. 3:30 -
Sa, 21.07. 3:20 -
Sa, 21.07. 3:10 -
Sa, 21.07. 3:00 -
Sa, 21.07. 2:50 -
Sa, 21.07. 2:40 -
Sa, 21.07. 2:30 -
Sa, 21.07. 2:00 -
Sa, 21.07. 1:30 -
Sa, 21.07. 1:00 -
Sa, 21.07. 0:30 -
Link zu dieser Seite / Seite empfehlen

Das Wetter in ...